Regional Weather Roundup
Issued by NWS

Home | Current Version | Previous Version | Graphics & Text | Print | Product List | Glossary On
Versions: 1 2 3 4 5 6 7 8 9 10 11 12 13 14 15 16 17 18 19 20 21 22 23 24 25 26 27 28 29 30 31 32 33 34 35 36 37 38 39 40 41 42 43 44 45 46 47 48 49 50
150
ASUS45 KCYS 190210
RWRWY

WYOMING REGIONAL WEATHER ROUNDUP
NATIONAL WEATHER SERVICE CHEYENNE WY
800 PM MDT WED OCT 18 2017

NOTE:  "FAIR" INDICATES FEW OR NO CLOUDS BELOW 12,000 FEET
WITH NO SIGNIFICANT WEATHER AND/OR OBSTRUCTIONS TO VISIBILITY.

WYZ001-190300-
YELLOWSTONE NATIONAL PARK

CITY           SKY/WX    TMP DP  RH WIND       PRES   REMARKS
LK YELLOWSTONE   N/A     40  25  55 CALM      30.21S
W YELLOWSTONE  NOT AVBL

$$
WYZ002>013-054>058-071-098>099-190300-
NORTHERN WYOMING

CITY           SKY/WX    TMP DP  RH WIND       PRES   REMARKS
JACKSON        FAIR      48  20  32 SW7       30.17R
CODY           FAIR      59  24  26 SW8       30.02S
GREYBULL       FAIR      62  17  17 SE5       29.94R
WORLAND        FAIR      52  23  32 S7        29.95R
SHERIDAN       FAIR      52  30  43 VRB3      29.92R
BUFFALO        FAIR      59  10  14 W7        29.97S
GILLETTE       FAIR      52  26  36 S10       29.95F
HULETT         FAIR      61  27  27 SW8       29.97F
NEWCASTLE      FAIR      59  23  25 SE12G20   30.02S

$$
WYZ014>020-022>026-101>103-190300-
CENTRAL WYOMING

CITY           SKY/WX    TMP DP  RH WIND       PRES   REMARKS
BIG PINEY      FAIR      42  15  33 NW13      30.20S
PINEDALE       FAIR      37  19  48 W5        30.21S WCI  34
DUBOIS         FAIR      43  18  36 NW13      30.16R
LANDER         FAIR      57  17  21 W12       30.04S
RIVERTON       FAIR      58  17  20 W7        30.05S
CASPER         FAIR      51  16  24 SW13      30.06S
DOUGLAS        FAIR      47  22  37 S7        30.06S

$$
WYZ021-027>030-104>119-190300-
SOUTHERN WYOMING

CITY           SKY/WX    TMP DP  RH WIND       PRES   REMARKS
EVANSTON       FAIR      52   9  17 W7        30.22R
KEMMERER       FAIR      46  14  27 NW5       30.22S
FORT BRIDGER   FAIR      50   3  14 SW7       30.24S
ROCK SPRINGS   FAIR      52   8  17 SW5       30.20S
DIXON          FAIR      41  12  30 NE5       30.24S
RAWLINS        FAIR      50   9  19 SW6       30.20R
SARATOGA       FAIR      43  10  26 CALM      30.22F
LARAMIE        FAIR      42  16  34 E5        30.22R
CHEYENNE       FAIR      55  20  25 S9        30.18R
TORRINGTON     FAIR      54  26  34 SE7       30.06R
PINE BLUFFS    FAIR      52  23  32 S8        30.15R

$$




USA.gov is the U.S. government's official web portal to all federal, state and local government web resources and services.